Time,TemperatureF,DewpointF,PressureIn,WindDirection,WindDirectionDegrees,WindSpeedMPH,WindSpeedGustMPH,Humidity,HourlyPrecipIn,Conditions,Clouds,dailyrainin,SoftwareType,DateUTC
2013-04-09 00:02:00,12.0,-99.9,-100.00,North,0,0.0,0.0,-999,0.00,,,-99.99,,2013-04-09 06:02:00,
2013-04-09 00:12:00,12.0,-99.9,-100.00,North,0,0.0,0.0,-999,0.00,,,-99.99,,2013-04-09 06:12:00,
2013-04-09 00:22:00,12.0,-99.9,-100.00,North,0,0.0,0.0,-999,0.00,,,-99.99,,2013-04-09 06:22:00,
2013-04-09 00:32:00,12.0,-99.9,-100.00,North,0,0.0,0.0,-999,0.00,,,-99.99,,2013-04-09 06:32:00,
2013-04-09 00:42:00,12.0,-99.9,-100.00,North,0,0.0,0.0,-999,0.00,,,-99.99,,2013-04-09 06:42:00,
2013-04-09 00:52:00,12.0,-99.9,-100.00,North,0,0.0,0.0,-999,0.00,,,-99.99,,2013-04-09 06:52:00,
2013-04-09 01:02:00,11.0,-99.9,-100.00,North,0,0.0,0.0,-999,0.00,,,-99.99,,2013-04-09 07:02:00,
2013-04-09 01:13:00,11.0,-99.9,-100.00,North,0,0.0,0.0,-999,0.00,,,-99.99,,2013-04-09 07:13:00,
2013-04-09 01:22:00,11.0,-99.9,-100.00,North,0,0.0,0.0,-999,0.00,,,-99.99,,2013-04-09 07:22:00,
2013-04-09 01:32:00,11.0,-99.9,-100.00,North,0,0.0,0.0,-999,0.00,,,-99.99,,2013-04-09 07:32:00,
2013-04-09 01:42:00,11.0,-99.9,-100.00,North,0,0.0,0.0,-999,0.00,,,-99.99,,2013-04-09 07:42:00,
2013-04-09 01:53:00,11.0,-99.9,-100.00,North,0,0.0,0.0,-999,0.00,,,-99.99,,2013-04-09 07:53:00,
2013-04-09 02:03:00,10.0,-99.9,-100.00,North,0,0.0,0.0,-999,0.00,,,-99.99,,2013-04-09 08:03:00,
2013-04-09 02:13:00,10.0,-99.9,-100.00,North,0,0.0,0.0,-999,0.00,,,-99.99,,2013-04-09 08:13:00,
2013-04-09 02:22:00,10.0,-99.9,-100.00,North,0,0.0,0.0,-999,0.00,,,-99.99,,2013-04-09 08:22:00,
2013-04-09 02:32:00,9.0,-99.9,-100.00,North,0,0.0,0.0,-999,0.00,,,-99.99,,2013-04-09 08:32:00,
2013-04-09 02:42:00,10.0,-99.9,-100.00,North,0,0.0,0.0,-999,0.00,,,-99.99,,2013-04-09 08:42:00,
2013-04-09 02:52:00,10.0,-99.9,-100.00,North,0,0.0,0.0,-999,0.00,,,-99.99,,2013-04-09 08:52:00,
2013-04-09 03:03:00,8.0,-99.9,-100.00,North,0,0.0,0.0,-999,0.00,,,-99.99,,2013-04-09 09:03:00,
2013-04-09 03:13:00,8.0,-99.9,-100.00,North,0,0.0,0.0,-999,0.00,,,-99.99,,2013-04-09 09:13:00,
2013-04-09 03:23:00,8.0,-99.9,-100.00,North,0,0.0,0.0,-999,0.00,,,-99.99,,2013-04-09 09:23:00,
2013-04-09 03:33:00,9.0,-99.9,-100.00,North,0,0.0,0.0,-999,0.00,,,-99.99,,2013-04-09 09:33:00,
2013-04-09 03:44:00,9.0,-99.9,-100.00,North,0,0.0,0.0,-999,0.00,,,-99.99,,2013-04-09 09:44:00,
2013-04-09 03:53:00,8.0,-99.9,-100.00,North,0,0.0,0.0,-999,0.00,,,-99.99,,2013-04-09 09:53:00,
2013-04-09 04:04:00,9.0,-99.9,-100.00,North,0,0.0,0.0,-999,0.00,,,-99.99,,2013-04-09 10:04:00,
2013-04-09 04:13:00,9.0,-99.9,-100.00,North,0,0.0,0.0,-999,0.00,,,-99.99,,2013-04-09 10:13:00,
2013-04-09 04:24:00,10.0,-99.9,-100.00,North,0,0.0,0.0,-999,0.00,,,-99.99,,2013-04-09 10:24:00,
2013-04-09 04:33:00,10.0,-99.9,-100.00,North,0,0.0,0.0,-999,0.00,,,-99.99,,2013-04-09 10:33:00,
2013-04-09 04:43:00,10.0,-99.9,-100.00,North,0,0.0,0.0,-999,0.00,,,-99.99,,2013-04-09 10:43:00,
2013-04-09 04:55:00,10.0,-99.9,-100.00,North,0,0.0,0.0,-999,0.00,,,-99.99,,2013-04-09 10:55:00,
2013-04-09 05:03:00,10.0,-99.9,-100.00,North,0,0.0,0.0,-999,0.00,,,-99.99,,2013-04-09 11:03:00,
2013-04-09 05:12:00,10.0,-99.9,-100.00,North,0,0.0,0.0,-999,0.00,,,-99.99,,2013-04-09 11:12:00,
2013-04-09 05:22:00,9.0,-99.9,-100.00,North,0,0.0,0.0,-999,0.00,,,-99.99,,2013-04-09 11:22:00,
2013-04-09 05:33:00,9.0,-99.9,-100.00,North,0,0.0,0.0,-999,0.00,,,-99.99,,2013-04-09 11:33:00,
2013-04-09 05:43:00,10.0,-99.9,-100.00,North,0,0.0,0.0,-999,0.00,,,-99.99,,2013-04-09 11:43:00,
2013-04-09 05:52:00,10.0,-99.9,-100.00,North,0,0.0,0.0,-999,0.00,,,-99.99,,2013-04-09 11:52:00,
2013-04-09 06:02:00,10.0,-99.9,-100.00,North,0,0.0,0.0,-999,0.00,,,-99.99,,2013-04-09 12:02:00,
2013-04-09 06:12:00,10.0,-99.9,-100.00,North,0,0.0,0.0,-999,0.00,,,-99.99,,2013-04-09 12:12:00,
2013-04-09 06:22:00,10.0,-99.9,-100.00,North,0,0.0,0.0,-999,0.00,,,-99.99,,2013-04-09 12:22:00,
2013-04-09 06:33:00,10.0,-99.9,-100.00,NNE,28,2.0,5.0,-999,0.00,,,-99.99,,2013-04-09 12:33:00,
2013-04-09 06:43:00,10.0,-99.9,-100.00,NNE,28,2.0,5.0,-999,0.00,,,-99.99,,2013-04-09 12:43:00,
2013-04-09 06:53:00,11.0,-99.9,-100.00,North,0,0.0,0.0,-999,0.00,,,-99.99,,2013-04-09 12:53:00,
2013-04-09 07:03:00,10.0,-99.9,-100.00,North,0,0.0,0.0,-999,0.00,,,-99.99,,2013-04-09 13:03:00,
2013-04-09 07:13:00,10.0,-99.9,-100.00,North,0,0.0,0.0,-999,0.00,,,-99.99,,2013-04-09 13:13:00,
2013-04-09 07:23:00,10.0,-99.9,-100.00,NE,35,1.0,5.0,-999,0.00,,,-99.99,,2013-04-09 13:23:00,
2013-04-09 07:33:00,10.0,-99.9,-100.00,NNE,31,5.0,7.0,-999,0.00,,,-99.99,,2013-04-09 13:33:00,
2013-04-09 07:43:00,10.0,-99.9,-100.00,NNE,31,5.0,7.0,-999,0.00,,,-99.99,,2013-04-09 13:43:00,
2013-04-09 07:54:00,11.0,-99.9,-100.00,North,0,0.0,0.0,-999,0.00,,,-99.99,,2013-04-09 13:54:00,
2013-04-09 08:04:00,11.0,-99.9,-100.00,NNE,25,4.0,7.0,-999,0.00,,,-99.99,,2013-04-09 14:04:00,
2013-04-09 08:12:00,11.0,-99.9,-100.00,NNE,25,4.0,7.0,-999,0.00,,,-99.99,,2013-04-09 14:12:00,
2013-04-09 08:22:00,12.0,-99.9,-100.00,North,0,0.0,0.0,-999,0.00,,,-99.99,,2013-04-09 14:22:00,
2013-04-09 08:33:00,12.0,-99.9,-100.00,North,0,0.0,0.0,-999,0.00,,,-99.99,,2013-04-09 14:33:00,
2013-04-09 08:43:00,12.0,-99.9,-100.00,North,0,0.0,0.0,-999,0.00,,,-99.99,,2013-04-09 14:43:00,
2013-04-09 08:53:00,12.0,-99.9,-100.00,North,0,0.0,0.0,-999,0.00,,,-99.99,,2013-04-09 14:53:00,
2013-04-09 09:03:00,13.0,-99.9,-100.00,NE,44,1.0,3.0,-999,0.00,,,-99.99,,2013-04-09 15:03:00,
2013-04-09 09:13:00,13.0,-99.9,-100.00,NE,44,1.0,3.0,-999,0.00,,,-99.99,,2013-04-09 15:13:00,
2013-04-09 09:23:00,14.0,-99.9,-100.00,NNE,20,2.0,6.0,-999,0.00,,,-99.99,,2013-04-09 15:23:00,
2013-04-09 09:35:00,15.0,-99.9,-100.00,North,0,0.0,0.0,-999,0.00,,,-99.99,,2013-04-09 15:35:00,
2013-04-09 09:44:00,15.0,-99.9,-100.00,North,0,0.0,0.0,-999,0.00,,,-99.99,,2013-04-09 15:44:00,
2013-04-09 09:54:00,16.0,-99.9,-100.00,North,0,0.0,0.0,-999,0.00,,,-99.99,,2013-04-09 15:54:00,
2013-04-09 10:05:00,16.0,-99.9,-100.00,North,0,0.0,0.0,-999,0.00,,,-99.99,,2013-04-09 16:05:00,
2013-04-09 10:14:00,16.0,-99.9,-100.00,North,0,0.0,0.0,-999,0.00,,,-99.99,,2013-04-09 16:14:00,
2013-04-09 10:24:00,16.0,-99.9,-100.00,North,0,0.0,0.0,-999,0.00,,,-99.99,,2013-04-09 16:24:00,
2013-04-09 10:34:00,17.0,-99.9,-100.00,North,0,0.0,0.0,-999,0.00,,,-99.99,,2013-04-09 16:34:00,
2013-04-09 10:43:00,17.0,-99.9,-100.00,North,0,0.0,0.0,-999,0.00,,,-99.99,,2013-04-09 16:43:00,
2013-04-09 10:54:00,18.0,-99.9,-100.00,NNE,27,4.0,6.0,-999,0.00,,,-99.99,,2013-04-09 16:54:00,
2013-04-09 11:03:00,18.0,-99.9,-100.00,North,10,5.0,8.0,-999,0.00,,,-99.99,,2013-04-09 17:03:00,
2013-04-09 11:13:00,18.0,-99.9,-100.00,North,8,5.0,7.0,-999,0.00,,,-99.99,,2013-04-09 17:13:00,
2013-04-09 11:24:00,18.0,-99.9,-100.00,North,8,5.0,7.0,-999,0.00,,,-99.99,,2013-04-09 17:24:00,
2013-04-09 11:33:00,19.0,-99.9,-100.00,NNE,31,4.0,5.0,-999,0.00,,,-99.99,,2013-04-09 17:33:00,
2013-04-09 11:43:00,19.0,-99.9,-100.00,NNE,31,4.0,5.0,-999,0.00,,,-99.99,,2013-04-09 17:43:00,
2013-04-09 11:55:00,21.0,-99.9,-100.00,NNE,15,4.0,6.0,-999,0.00,,,-99.99,,2013-04-09 17:55:00,
2013-04-09 12:03:00,20.0,-99.9,-100.00,NE,34,2.0,5.0,-999,0.00,,,-99.99,,2013-04-09 18:03:00,
2013-04-09 12:13:00,20.0,-99.9,-100.00,NE,34,2.0,5.0,-999,0.00,,,-99.99,,2013-04-09 18:13:00,
2013-04-09 12:23:00,21.0,-99.9,-100.00,North,0,0.0,0.0,-999,0.00,,,-99.99,,2013-04-09 18:23:00,
2013-04-09 12:33:00,20.0,-99.9,-100.00,North,0,0.0,0.0,-999,0.00,,,-99.99,,2013-04-09 18:33:00,
2013-04-09 12:44:00,20.0,-99.9,-100.00,North,0,0.0,0.0,-999,0.00,,,-99.99,,2013-04-09 18:44:00,
2013-04-09 12:53:00,21.0,-99.9,-100.00,North,0,0.0,0.0,-999,0.00,,,-99.99,,2013-04-09 18:53:00,
2013-04-09 13:03:00,21.0,-99.9,-100.00,North,0,0.0,0.0,-999,0.00,,,-99.99,,2013-04-09 19:03:00,
2013-04-09 13:12:00,21.0,-99.9,-100.00,North,0,0.0,0.0,-999,0.00,,,-99.99,,2013-04-09 19:12:00,
2013-04-09 13:23:00,21.0,-99.9,-100.00,North,0,0.0,0.0,-999,0.00,,,-99.99,,2013-04-09 19:23:00,
2013-04-09 13:33:00,21.0,-99.9,-100.00,North,0,0.0,0.0,-999,0.00,,,-99.99,,2013-04-09 19:33:00,
2013-04-09 13:43:00,21.0,-99.9,-100.00,North,0,0.0,0.0,-999,0.00,,,-99.99,,2013-04-09 19:43:00,
2013-04-09 13:53:00,22.0,-99.9,-100.00,North,0,0.0,0.0,-999,0.00,,,-99.99,,2013-04-09 19:53:00,
2013-04-09 14:03:00,23.0,-99.9,-100.00,North,0,0.0,0.0,-999,0.00,,,-99.99,,2013-04-09 20:03:00,
2013-04-09 14:13:00,24.0,-99.9,-100.00,North,0,0.0,0.0,-999,0.00,,,-99.99,,2013-04-09 20:13:00,
2013-04-09 14:23:00,24.0,-99.9,-100.00,North,0,0.0,0.0,-999,0.00,,,-99.99,,2013-04-09 20:23:00,
2013-04-09 14:35:00,23.0,-99.9,-100.00,North,0,0.0,0.0,-999,0.00,,,-99.99,,2013-04-09 20:35:00,
2013-04-09 14:44:00,23.0,-99.9,-100.00,North,0,0.0,0.0,-999,0.00,,,-99.99,,2013-04-09 20:44:00,
2013-04-09 14:53:00,24.0,-99.9,-100.00,North,0,0.0,0.0,-999,0.00,,,-99.99,,2013-04-09 20:53:00,
2013-04-09 15:03:00,24.0,-99.9,-100.00,NE,49,3.0,5.0,-999,0.00,,,-99.99,,2013-04-09 21:03:00,
2013-04-09 15:14:00,24.0,-99.9,-100.00,NE,49,3.0,5.0,-999,0.00,,,-99.99,,2013-04-09 21:14:00,
2013-04-09 15:23:00,24.0,-99.9,-100.00,NE,49,3.0,5.0,-999,0.00,,,-99.99,,2013-04-09 21:23:00,
2013-04-09 15:33:00,25.0,-99.9,-100.00,North,0,0.0,0.0,-999,0.00,,,-99.99,,2013-04-09 21:33:00,
2013-04-09 15:43:00,25.0,-99.9,-100.00,North,0,0.0,0.0,-999,0.00,,,-99.99,,2013-04-09 21:43:00,
2013-04-09 15:53:00,27.0,-99.9,-100.00,North,0,0.0,0.0,-999,0.00,,,-99.99,,2013-04-09 21:53:00,
2013-04-09 16:04:00,27.0,-99.9,-100.00,ESE,118,2.0,5.0,-999,0.00,,,-99.99,,2013-04-09 22:04:00,
2013-04-09 16:13:00,27.0,-99.9,-100.00,North,0,0.0,0.0,-999,0.00,,,-99.99,,2013-04-09 22:13:00,
2013-04-09 16:23:00,27.0,-99.9,-100.00,North,0,0.0,0.0,-999,0.00,,,-99.99,,2013-04-09 22:23:00,
2013-04-09 16:34:00,28.0,-99.9,-100.00,North,0,0.0,0.0,-999,0.00,,,-99.99,,2013-04-09 22:34:00,
2013-04-09 16:43:00,28.0,-99.9,-100.00,North,0,0.0,0.0,-999,0.00,,,-99.99,,2013-04-09 22:43:00,
2013-04-09 16:54:00,27.0,-99.9,-100.00,North,0,0.0,0.0,-999,0.00,,,-99.99,,2013-04-09 22:54:00,
2013-04-09 17:03:00,29.0,-99.9,-100.00,North,0,0.0,0.0,-999,0.00,,,-99.99,,2013-04-09 23:03:00,
2013-04-09 17:13:00,29.0,-99.9,-100.00,North,0,0.0,0.0,-999,0.00,,,-99.99,,2013-04-09 23:13:00,
2013-04-09 17:23:00,29.0,-99.9,-100.00,North,0,0.0,0.0,-999,0.00,,,-99.99,,2013-04-09 23:23:00,
2013-04-09 17:33:00,28.0,-99.9,-100.00,North,0,0.0,0.0,-999,0.00,,,-99.99,,2013-04-09 23:33:00,
2013-04-09 17:43:00,28.0,-99.9,-100.00,North,0,0.0,0.0,-999,0.00,,,-99.99,,2013-04-09 23:43:00,
2013-04-09 17:53:00,28.0,-99.9,-100.00,North,0,0.0,0.0,-999,0.00,,,-99.99,,2013-04-09 23:53:00,
2013-04-09 18:03:00,28.0,-99.9,-100.00,North,0,0.0,0.0,-999,0.00,,,-99.99,,2013-04-10 00:03:00,
2013-04-09 18:13:00,28.0,-99.9,-100.00,North,0,0.0,0.0,-999,0.00,,,-99.99,,2013-04-10 00:13:00,
2013-04-09 18:23:00,29.0,-99.9,-100.00,North,0,0.0,0.0,-999,0.00,,,-99.99,,2013-04-10 00:23:00,
2013-04-09 18:33:00,30.0,-99.9,-100.00,North,0,0.0,0.0,-999,0.00,,,-99.99,,2013-04-10 00:33:00,
2013-04-09 18:43:00,30.0,-99.9,-100.00,North,0,0.0,0.0,-999,0.00,,,-99.99,,2013-04-10 00:43:00,
2013-04-09 18:53:00,32.0,-99.9,-100.00,North,0,0.0,0.0,-999,0.00,,,-99.99,,2013-04-10 00:53:00,
2013-04-09 19:03:00,30.0,-99.9,-100.00,North,0,0.0,0.0,-999,0.00,,,-99.99,,2013-04-10 01:03:00,
2013-04-09 19:13:00,27.0,-99.9,-100.00,North,0,0.0,0.0,-999,0.00,,,-99.99,,2013-04-10 01:13:00,
2013-04-09 19:23:00,27.0,-99.9,-100.00,North,0,0.0,0.0,-999,0.00,,,-99.99,,2013-04-10 01:23:00,
2013-04-09 19:33:00,26.0,-99.9,-100.00,North,0,0.0,0.0,-999,0.00,,,-99.99,,2013-04-10 01:33:00,
2013-04-09 19:43:00,26.0,-99.9,-100.00,North,0,0.0,0.0,-999,0.00,,,-99.99,,2013-04-10 01:43:00,
2013-04-09 19:53:00,24.0,-99.9,-100.00,North,0,0.0,0.0,-999,0.00,,,-99.99,,2013-04-10 01:53:00,
2013-04-09 20:03:00,23.0,-99.9,-100.00,North,0,0.0,0.0,-999,0.00,,,-99.99,,2013-04-10 02:03:00,
2013-04-09 20:13:00,23.0,-99.9,-100.00,North,0,0.0,0.0,-999,0.00,,,-99.99,,2013-04-10 02:13:00,
2013-04-09 20:23:00,23.0,-99.9,-100.00,North,0,0.0,0.0,-999,0.00,,,-99.99,,2013-04-10 02:23:00,
2013-04-09 20:33:00,23.0,-99.9,-100.00,North,0,0.0,0.0,-999,0.00,,,-99.99,,2013-04-10 02:33:00,
2013-04-09 20:43:00,23.0,-99.9,-100.00,North,0,0.0,0.0,-999,0.00,,,-99.99,,2013-04-10 02:43:00,
2013-04-09 20:53:00,23.0,-99.9,-100.00,North,0,0.0,0.0,-999,0.00,,,-99.99,,2013-04-10 02:53:00,
2013-04-09 21:03:00,23.0,-99.9,-100.00,North,0,0.0,0.0,-999,0.00,,,-99.99,,2013-04-10 03:03:00,
2013-04-09 21:13:00,23.0,-99.9,-100.00,North,0,0.0,0.0,-999,0.00,,,-99.99,,2013-04-10 03:13:00,
2013-04-09 21:22:00,23.0,-99.9,-100.00,North,0,0.0,0.0,-999,0.00,,,-99.99,,2013-04-10 03:22:00,
2013-04-09 21:33:00,22.0,-99.9,-100.00,North,0,0.0,0.0,-999,0.00,,,-99.99,,2013-04-10 03:33:00,
2013-04-09 21:43:00,22.0,-99.9,-100.00,North,0,0.0,0.0,-999,0.00,,,-99.99,,2013-04-10 03:43:00,
2013-04-09 21:53:00,23.0,-99.9,-100.00,North,0,0.0,0.0,-999,0.00,,,-99.99,,2013-04-10 03:53:00,
2013-04-09 22:03:00,23.0,-99.9,-100.00,North,0,0.0,0.0,-999,0.00,,,-99.99,,2013-04-10 04:03:00,
2013-04-09 22:13:00,23.0,-99.9,-100.00,North,0,0.0,0.0,-999,0.00,,,-99.99,,2013-04-10 04:13:00,
2013-04-09 22:23:00,22.0,-99.9,-100.00,North,0,0.0,0.0,-999,0.00,,,-99.99,,2013-04-10 04:23:00,
2013-04-09 22:33:00,22.0,-99.9,-100.00,North,0,0.0,0.0,-999,0.00,,,-99.99,,2013-04-10 04:33:00,
2013-04-09 22:43:00,22.0,-99.9,-100.00,North,0,0.0,0.0,-999,0.00,,,-99.99,,2013-04-10 04:43:00,
2013-04-09 22:53:00,21.0,-99.9,-100.00,North,0,0.0,0.0,-999,0.00,,,-99.99,,2013-04-10 04:53:00,
2013-04-09 23:03:00,21.0,-99.9,-100.00,North,0,0.0,0.0,-999,0.00,,,-99.99,,2013-04-10 05:03:00,
2013-04-09 23:13:00,21.0,-99.9,-100.00,North,0,0.0,0.0,-999,0.00,,,-99.99,,2013-04-10 05:13:00,
2013-04-09 23:23:00,21.0,-99.9,-100.00,North,0,0.0,0.0,-999,0.00,,,-99.99,,2013-04-10 05:23:00,
2013-04-09 23:33:00,21.0,-99.9,-100.00,North,0,0.0,0.0,-999,0.00,,,-99.99,,2013-04-10 05:33:00,
2013-04-09 23:43:00,21.0,-99.9,-100.00,North,0,0.0,0.0,-999,0.00,,,-99.99,,2013-04-10 05:43:00,
2013-04-09 23:54:00,22.0,-99.9,-100.00,North,0,0.0,0.0,-999,0.00,,,-99.99,,2013-04-10 05:54:00,